Flag for Iran Weather past 2 weeks in Mashhad, Iran

Now
64 °F

Sunny.


Feels Like: 64 °F
Forecast: 45 / 77 °F
Wind: 7 mph from Southeast

Location: Mashhad Airport

Current Time: Apr 27, 2015 at 12:03:45 PM

Latest Report: Apr 27, 2015 at 11:30 AM


Visibility: 10 mi

Pressure: 30.24 "Hg

Humidity: 28%

Dew point: 30 °F

Location of MashhadLocation

Historic Weather in Mashhad — Graph

°F

Mashhad temperature yesterday

Maximum temperature yesterday: 66 °F (at 3:30 PM)
Minimum temperature yesterday: 46 °F (at 2:30 AM)
Average temperature yesterday: 56 °F

Past Weeks' High & Low Weather Summary

 TemperatureHumidityPressure
High91 °F (Apr 22, 1:30 PM)77% (Apr 13, 3:00 AM)30.33 "Hg (Apr 13, 3:00 AM)
Low41 °F (Apr 27, 5:00 AM)6% (Apr 22, 2:00 PM)29.74 "Hg (Apr 14, 12:00 AM)
Average66 °F40%30.01 "Hg
* Reported Apr 12 10:30 AM — Apr 27 11:00 AM, Mashhad, Weather by CustomWeather, © 2015

Note: Actual official high and low records may vary slightly from our data, if they occured in-between our weather recording intervals... More about our weather records

Advertising

Mashhad weather history for previous 24 hours

 ConditionsComfort  
Time TempWeatherWind HumidityBarometerVisibility
11:00 AM
Mon, Apr 27
63 °FSunny.9 mph32%30.27 "Hg10 mi
10:30 AM63 °FSunny.7 mph34%30.27 "Hg10 mi
10:00 AM61 °FSunny.7 mph34%30.27 "Hg10 mi
9:30 AM59 °FSunny.5 mph39%30.27 "Hg10 mi
9:00 AM59 °FSunny.5 mph39%30.27 "Hg10 mi
8:30 AM57 °FSunny.7 mph41%30.30 "Hg10 mi
8:00 AM57 °FSunny.5 mph41%30.27 "Hg10 mi
7:30 AM57 °FSunny.No wind44%30.27 "Hg10 mi
7:00 AM52 °FClear.5 mph50%30.27 "Hg10 mi
6:30 AM48 °FClear.5 mph58%30.27 "Hg10 mi
6:00 AM48 °FClear.5 mph58%30.27 "Hg10 mi
5:30 AM48 °FClear.No wind58%30.27 "Hg10 mi
5:00 AM41 °FClear.No wind76%30.27 "Hg10 mi
4:30 AM48 °FClear.No wind58%30.27 "Hg10 mi
4:00 AM50 °FClear.5 mph54%30.27 "Hg10 mi
3:20 AM50 °FClear.5 mph50%30.27 "Hg10 mi
2:55 AM50 °FClear.5 mph50%30.27 "Hg10 mi
2:30 AM52 °FClear.5 mph47%30.27 "Hg10 mi
1:30 AM52 °FClear.No wind47%30.30 "Hg10 mi
12:30 AM52 °FClear.7 mph47%30.30 "Hg10 mi
12:00 AM52 °FClear.7 mph47%30.30 "Hg10 mi
11:30 PM
Sun, Apr 26
52 °FClear.7 mph47%30.30 "Hg10 mi
11:00 PM52 °FClear.7 mph47%30.33 "Hg10 mi
10:30 PM54 °FClear.7 mph41%30.33 "Hg10 mi
9:56 PM54 °FClear.9 mph41%30.33 "Hg10 mi
9:30 PM54 °FClear.7 mph44%30.33 "Hg10 mi
9:00 PM55 °FClear.7 mph38%30.33 "Hg10 mi
8:20 PM57 °FSunny.9 mph36%30.30 "Hg10 mi
8:00 PM59 °FSunny.12 mph34%30.27 "Hg10 mi
7:30 PM59 °FSunny.14 mph34%30.27 "Hg10 mi
7:00 PM61 °FSunny.16 mph29%30.27 "Hg10 mi
6:30 PM64 °FSunny.14 mph26%30.27 "Hg10 mi
5:50 PM66 °FPassing clouds.9 mph22%30.27 "HgN/A
5:30 PM66 °FPassing clouds.5 mph22%30.27 "HgN/A
4:50 PM66 °FPassing clouds.7 mph21%30.24 "HgN/A
4:30 PM66 °FPassing clouds.No wind21%30.24 "HgN/A
4:00 PM66 °FPassing clouds.7 mph22%30.24 "HgN/A
3:30 PM66 °FPassing clouds.7 mph22%30.24 "HgN/A
3:00 PM64 °FPassing clouds.5 mph24%30.27 "HgN/A
2:30 PM64 °FPassing clouds.14 mph24%30.27 "HgN/A
2:00 PM64 °FPassing clouds.9 mph26%30.27 "HgN/A
1:30 PM63 °FPassing clouds.12 mph27%30.27 "HgN/A
1:00 PM61 °FPassing clouds.9 mph29%30.27 "HgN/A
12:30 PM61 °FPassing clouds.14 mph31%30.27 "HgN/A
12:00 PM59 °FPassing clouds.12 mph31%30.27 "HgN/A
Weather by CustomWeather, © 2015

See weather overviewHow to use our weather pages